Marule, Australia

5:58 PM AEST on April 26, 2017 (GMT +1000)
Marule

Weather History for 94387 - February, 2014

Change the Weather History Date:

Monday, February 24, 2014

  Actual Average Record
Temperature  
Mean Temperature 75 °F -  
Max Temperature 84 °F - - ()
Min Temperature 66 °F - - ()
Cooling Degree Days 10    
Growing Degree Days 25 (Base 50)    
Moisture  
Dew Point 62 °F    
Average Humidity 64    
Maximum Humidity 89    
Minimum Humidity 38    
Precipitation  
Precipitation 0.00 in - - ()
Sea Level Pressure  
Sea Level Pressure 29.96 in    
Wind  
Wind Speed 11 mph ()    
Max Wind Speed 25 mph    
Max Gust Speed 33 mph    
Visibility 6.2 miles    
Events      
T = Trace of Precipitation, MM = Missing Value Source: Averaged Metar Reports

Daily Weather History Graph

Daily Weather History Graph

Search for Another Location

Airport or City:

Trip Planner

Search our weather history database for the weather conditions in past years. The results will help you decide how hot, cold, wet, or windy it might be!

Date:

Astronomy

Feb. 24, 2014 Rise Set
Actual Time 5:42 AM AEST 6:25 PM AEST
Civil Twilight 5:18 AM AEST 6:48 PM AEST
Nautical Twilight 4:51 AM AEST 7:16 PM AEST
Astronomical Twilight 4:23 AM AEST 7:43 PM AEST
Moon 12:02 AM AEST (2/24) 1:46 PM AEST (2/24)
Length of Visible Light 13h 29m
Length of Day
12h 43m
Waning Crescent, 35% of the Moon is Illuminated
Feb 24
Waning Crescent
Mar 1
New
Mar 8
First Quarter
Mar 17
Full
Mar 24
Last Quarter

Hourly Weather History & Observations

Time (AEST) Temp. Heat Index Dew Point Humidity Pressure Visibility Wind Dir Wind Speed Gust Speed Precip Events Conditions
12:00 AM 70 °F - 65 °F 78% 30.00 in - South 6.9 mph - -  
12:00 AM 69.8 °F - 64.4 °F 83% 29.98 in 6.2 mi South 6.9 mph - N/A   Scattered Clouds
1:00 AM 69.8 °F - 64.4 °F 83% 29.98 in 6.2 mi SSE 9.2 mph - N/A   Mostly Cloudy
2:00 AM 69.8 °F - 64.4 °F 83% 29.95 in 6.2 mi South 8.1 mph - N/A   Mostly Cloudy
3:00 AM 68 °F - 64 °F 85% 29.96 in - South 8.1 mph - -  
3:00 AM 68.0 °F - 64.4 °F 88% 29.95 in 6.2 mi South 8.1 mph - N/A   Scattered Clouds
4:00 AM 68.0 °F - 64.4 °F 88% 29.95 in 6.2 mi South 8.1 mph - N/A   Scattered Clouds
5:00 AM 68.0 °F - 64.4 °F 88% 29.95 in 6.2 mi South 8.1 mph - N/A   Unknown
6:00 AM 67 °F - 64 °F 89% 29.97 in - South 8.1 mph - -  
6:00 AM 68.0 °F - 64.4 °F 88% 29.98 in 6.2 mi South 8.1 mph - N/A   Unknown
7:00 AM 69.8 °F - 64.4 °F 83% 29.98 in 6.2 mi South 10.4 mph - N/A   Unknown
8:00 AM 75.2 °F - 64.4 °F 69% 30.01 in 6.2 mi South 12.7 mph - N/A   Unknown
9:00 AM 79 °F - 62 °F 46% 30.00 in - SSE 17.3 mph - -  
9:00 AM 78.8 °F - 62.6 °F 57% 29.98 in 6.2 mi SSE 17.3 mph - N/A   Unknown
10:00 AM 82.4 °F 82.5 °F 59.0 °F 45% 29.98 in 6.2 mi SE 16.1 mph - N/A   Scattered Clouds
11:00 AM 84.2 °F 84.4 °F 60.8 °F 45% 29.98 in 6.2 mi ESE 18.4 mph - N/A   Unknown
12:00 PM 84 °F - 62 °F 38% 29.96 in - ESE 19.6 mph - -  
12:00 PM 84.2 °F 85.0 °F 62.6 °F 48% 29.95 in 6.2 mi ESE 19.6 mph - N/A   Scattered Clouds
1:00 PM 82.4 °F 82.9 °F 60.8 °F 48% 29.95 in 6.2 mi ESE 20.7 mph - N/A   Mostly Cloudy
2:00 PM 84.2 °F 85.0 °F 62.6 °F 48% 29.92 in 6.2 mi East 18.4 mph - N/A   Scattered Clouds
3:00 PM 83 °F - 62 °F 39% 29.91 in - East 20.7 mph - -  
3:00 PM 82.4 °F 83.4 °F 62.6 °F 51% 29.89 in 6.2 mi East 20.7 mph - N/A   Scattered Clouds
4:00 PM 82.4 °F 82.9 °F 60.8 °F 48% 29.89 in 6.2 mi East 25.3 mph - N/A   Unknown
4:33 PM 82.4 °F 82.9 °F 60.8 °F 48% 29.89 in 6.2 mi East 21.9 mph 33.4 mph N/A   Unknown
5:00 PM 82.4 °F 82.9 °F 60.8 °F 48% 29.92 in 6.2 mi ESE 19.6 mph - N/A   Unknown
6:00 PM 79 °F - 61 °F 44% 29.94 in - ESE 19.6 mph - -  
6:00 PM 78.8 °F - 60.8 °F 54% 29.95 in 6.2 mi ESE 19.6 mph - N/A   Unknown
7:00 PM 75.2 °F - 60.8 °F 61% 29.95 in 6.2 mi ESE 12.7 mph - N/A   Unknown
8:00 PM 73.4 °F - 62.6 °F 69% 29.98 in 6.2 mi SE 10.4 mph - N/A   Scattered Clouds
9:00 PM 72 °F - 61 °F 61% 29.99 in - SE 12.7 mph - -  
9:00 PM 73.4 °F - 60.8 °F 65% 29.98 in 6.2 mi SE 12.7 mph - N/A   Scattered Clouds
10:00 PM 71.6 °F - 62.6 °F 73% 29.98 in 6.2 mi SSE 6.9 mph - N/A   Unknown
11:00 PM 68.0 °F - 60.8 °F 78% 29.98 in 6.2 mi SSE 5.8 mph - N/A   Unknown